Wausau, WI

11:22 PM CST on November 18, 2017 (GMT -0600)
Wausau Downtown

Weather History for KAUW - November, 2012

Change the Weather History Date:

Friday, November 2, 2012

  Actual Average Record
Temperature  
Mean Temperature 36 °F 39 °F  
Max Temperature 44 °F 48 °F 72 °F (1944)
Min Temperature 27 °F 31 °F 0 °F (1951)
Degree Days  
Heating Degree Days 29 26  
Month to date heating degree days 56 51  
Since 1 July heating degree days 915 935  
Cooling Degree Days 0 0  
Month to date cooling degree days 0 0  
Year to date cooling degree days 725 407  
Moisture  
Dew Point 22 °F    
Average Humidity 59    
Maximum Humidity 82    
Minimum Humidity 36    
Precipitation  
Precipitation 0.00 in 0.07 in 1.43 in (1961)
Month to date precipitation T 0.14  
Year to date precipitation 26.58 29.19  
Snow  
Snow 0.00 in 0.10 in 1.40 in (1919)
Month to date snowfall 0.0 0.2  
Since 1 July snowfall T 1.6  
Snow Depth 0.00 in    
Sea Level Pressure  
Sea Level Pressure 30.12 in    
Wind  
Wind Speed 3 mph (NNW)    
Max Wind Speed 10 mph    
Max Gust Speed 15 mph    
Visibility 10 miles    
Events      
T = Trace of Precipitation, MM = Missing Value Source: NWS Daily Summary

Daily Weather History Graph

Daily Weather History Graph

Search for Another Location

Airport or City:

Trip Planner

Search our weather history database for the weather conditions in past years. The results will help you decide how hot, cold, wet, or windy it might be!

Date:

Astronomy

Nov. 02, 2012 Rise Set
Actual Time 7:38 AM CDT 5:44 PM CDT
Civil Twilight 7:08 AM CDT 6:15 PM CDT
Nautical Twilight 6:33 AM CDT 6:50 PM CDT
Astronomical Twilight 5:59 AM CDT 7:24 PM CDT
Moon 8:26 PM CDT (11/2) 11:04 AM CDT (11/2)
Length of Visible Light 11h 07m
Length of Day
10h 05m
Waning Gibbous, 87% of the Moon is Illuminated
Nov 2
Waning Gibbous
Nov 6
Last Quarter
Nov 13
New
Nov 20
First Quarter
Nov 28
Full

Hourly Weather History & Observations

Time (CDT) Temp. Windchill Dew Point Humidity Pressure Visibility Wind Dir Wind Speed Gust Speed Precip Events Conditions
12:54 AM 34.0 °F 26.6 °F 28.0 °F 79% 30.01 in 10.0 mi NNW 9.2 mph - N/A   Scattered Clouds
1:54 AM 32.0 °F 25.6 °F 26.1 °F 79% 30.02 in 10.0 mi NW 6.9 mph - N/A   Clear
2:54 AM 32.0 °F 26.4 °F 23.0 °F 69% 30.03 in 10.0 mi NNW 5.8 mph - N/A   Clear
3:54 AM 30.9 °F 24.3 °F 23.0 °F 72% 30.04 in 10.0 mi NNW 6.9 mph - N/A   Clear
4:54 AM 30.0 °F - 23.0 °F 75% 30.04 in 10.0 mi Calm Calm - N/A   Clear
5:54 AM 28.0 °F - 21.9 °F 78% 30.05 in 10.0 mi Calm Calm - N/A   Clear
6:54 AM 28.0 °F 22.8 °F 21.9 °F 78% 30.08 in 10.0 mi NW 4.6 mph - N/A   Clear
7:54 AM 28.0 °F 22.8 °F 21.9 °F 78% 30.10 in 10.0 mi NW 4.6 mph - N/A   Clear
8:54 AM 30.0 °F - 23.0 °F 75% 30.11 in 10.0 mi Calm Calm - N/A   Clear
9:54 AM 34.0 °F 28.8 °F 21.9 °F 61% 30.13 in 10.0 mi North 5.8 mph - N/A   Clear
10:54 AM 36.0 °F 31.1 °F 21.9 °F 57% 30.13 in 10.0 mi NNW 5.8 mph - N/A   Clear
11:54 AM 37.9 °F 35.5 °F 21.9 °F 53% 30.14 in 10.0 mi West 3.5 mph - N/A   Clear
12:54 PM 39.0 °F 34.0 °F 21.9 °F 50% 30.14 in 10.0 mi NW 6.9 mph - N/A   Clear
1:54 PM 42.1 °F 38.4 °F 21.0 °F 43% 30.13 in 10.0 mi NNW 5.8 mph - N/A   Clear
2:54 PM 44.1 °F 42.5 °F 21.0 °F 40% 30.12 in 10.0 mi Variable 3.5 mph - N/A   Clear
3:54 PM 44.1 °F 42.5 °F 19.9 °F 38% 30.12 in 10.0 mi Variable 3.5 mph - N/A   Clear
4:54 PM 42.1 °F 38.4 °F 18.0 °F 38% 30.13 in 10.0 mi North 5.8 mph - N/A   Clear
5:54 PM 39.9 °F - 19.9 °F 45% 30.14 in 10.0 mi Calm Calm - N/A   Clear
6:54 PM 37.9 °F 34.4 °F 19.0 °F 47% 30.16 in 10.0 mi NNE 4.6 mph - N/A   Clear
7:54 PM 36.0 °F - 19.0 °F 50% 30.17 in 10.0 mi Calm Calm - N/A   Clear
8:54 PM 34.0 °F 29.8 °F 19.9 °F 56% 30.17 in 10.0 mi NE 4.6 mph - N/A   Clear
9:54 PM 30.9 °F - 19.9 °F 64% 30.19 in 10.0 mi Calm Calm - N/A   Clear
10:54 PM 30.0 °F - 19.9 °F 66% 30.22 in 10.0 mi Calm Calm - N/A   Clear
11:54 PM 28.9 °F - 19.9 °F 69% 30.23 in 10.0 mi Calm Calm - N/A   Clear